Theta_e
311 312 311 310 311 311 311 310 311 310 309 311 313 315 315 314 314 314 315 315 315 315 316 316 316 315 315 315 315 317 317 317 317 317 316 316 315 313 313 313 313 314 316 316 316 315 314 314 315 315 315 315 314 314 314 315 315 316 324 330 329 331 333 334 336 334 334 335 335 334 333 337 339 336 335 335 335 333 332 332 332 333 333 333 332 332 331 332
310 312 311 310 311 311 311 310 310 311 309 311 314 316 315 315 314 314 315 315 315 315 316 316 316 315 315 315 315 316 316 317 317 315 315 314 313 314 315 315 316 317 316 317 317 316 316 315 316 315 316 315 314 314 313 315 314 318 327 330 328 332 330 327 329 329 332 336 334 334 334 335 338 335 334 337 335 332 332 332 332 333 333 332 332 332 331 332
307 311 312 311 310 310 310 310 311 312 310 311 314 316 315 314 314 314 316 315 315 315 316 316 316 316 315 315 315 315 317 318 316 314 314 314 313 316 315 316 316 316 316 316 316 317 317 316 317 316 316 315 314 314 314 315 313 315 328 337 332 329 327 326 327 329 333 335 333 333 333 334 335 334 334 335 334 332 331 332 332 333 333 332 332 333 332 332
307 309 312 311 311 311 311 311 311 312 311 312 313 316 315 315 314 315 316 315 315 315 315 316 317 317 315 315 315 316 318 317 315 315 315 315 315 316 315 316 316 316 316 316 316 316 316 316 317 316 317 316 314 314 313 314 313 316 330 340 330 326 330 330 329 332 333 333 333 332 334 335 334 334 334 333 336 336 331 332 332 332 333 332 332 332 332 332
307 307 310 312 312 311 311 311 311 312 312 312 313 315 315 315 314 316 316 315 315 315 315 316 317 317 316 316 315 316 318 316 315 316 315 314 316 316 316 316 316 316 316 316 316 316 317 316 317 317 316 315 313 313 313 313 318 323 326 328 326 327 331 330 330 333 332 333 333 333 336 336 333 334 333 332 336 335 330 332 332 332 332 332 332 331 332 332
308 307 308 310 312 313 312 312 312 312 313 312 313 315 316 315 315 316 316 315 315 315 315 316 317 317 316 316 316 317 319 317 316 316 315 316 316 316 316 316 316 316 315 316 316 316 317 316 317 316 315 315 313 313 314 315 322 330 327 324 326 329 329 328 330 332 332 333 333 334 335 334 334 334 333 332 333 330 329 332 332 331 331 331 331 331 332 331
309 308 307 308 310 313 314 313 313 312 313 313 313 314 316 315 315 315 315 315 315 315 316 315 317 317 316 317 317 318 318 317 316 315 315 316 316 316 316 316 316 316 316 316 316 316 316 316 316 315 317 320 318 319 321 320 324 331 330 324 326 328 327 328 331 331 333 333 333 333 334 333 334 334 333 332 330 329 329 331 331 331 331 331 331 331 331 331
311 310 309 307 308 312 314 313 313 313 313 313 313 314 315 316 315 315 315 315 315 316 315 315 317 317 317 317 317 318 318 317 315 315 315 315 315 316 316 316 316 316 316 316 316 316 316 316 316 317 321 322 322 324 325 325 326 329 329 324 325 327 326 328 330 332 332 332 332 333 332 331 332 332 331 330 329 329 329 330 330 331 331 331 332 331 331 331
314 313 311 308 307 309 312 314 313 314 313 313 313 313 315 315 315 315 315 315 315 316 315 315 317 317 317 317 317 318 317 316 315 315 315 315 316 316 316 316 316 316 316 316 315 316 316 317 317 320 323 321 323 324 323 325 327 327 326 324 324 326 328 330 331 332 332 332 332 333 331 330 330 330 331 329 329 330 330 330 330 331 331 331 331 332 331 331
314 314 314 312 309 307 309 313 314 314 314 314 313 313 314 315 315 315 315 315 315 315 315 315 316 318 317 317 318 318 317 316 314 315 315 315 316 316 316 316 316 317 317 316 316 316 316 317 319 321 323 322 322 322 322 324 326 325 324 324 324 326 330 331 332 332 332 331 330 333 333 330 328 330 333 329 328 331 330 330 330 331 332 331 332 331 331 330
316 315 315 315 313 309 308 310 313 314 315 315 314 313 314 314 315 315 315 315 315 315 315 316 317 317 317 317 318 317 316 316 316 315 314 315 316 316 316 316 317 316 317 316 316 316 316 316 318 319 321 321 322 323 324 324 325 325 325 326 324 326 329 331 332 331 331 331 329 331 332 329 329 332 333 329 328 331 331 330 330 331 332 331 331 331 331 330
318 317 316 316 315 313 310 307 309 312 315 316 315 315 314 314 315 315 314 315 315 316 316 317 317 317 317 319 318 317 316 316 317 316 315 315 316 316 317 317 317 317 316 316 316 316 316 316 315 317 320 322 323 324 325 325 325 325 326 327 326 326 328 328 331 331 330 332 330 328 329 331 334 334 331 329 330 331 330 329 329 329 331 331 331 331 331 331
318 318 317 316 315 315 313 309 307 309 313 315 316 316 316 314 314 315 315 315 315 315 316 317 317 317 318 319 317 316 316 316 317 316 316 316 317 317 316 317 316 316 316 316 316 316 316 316 316 318 321 323 323 323 325 324 324 326 324 326 329 329 328 325 326 328 328 332 329 324 328 337 338 333 329 330 330 330 329 328 329 329 329 330 330 331 331 331
319 318 316 316 315 315 315 312 308 307 309 313 316 317 317 315 314 315 315 315 316 316 317 317 317 317 318 318 317 316 316 316 316 317 317 316 317 317 316 317 316 316 317 316 317 316 316 316 317 320 321 322 322 323 326 324 325 326 321 324 329 328 330 326 323 326 329 330 328 323 329 338 337 331 329 330 330 328 329 328 328 329 329 329 329 330 331 330
318 317 315 315 314 314 316 314 309 307 308 310 314 316 316 315 314 314 315 316 316 316 317 317 317 317 318 318 317 317 316 316 317 317 317 316 316 316 316 317 316 316 317 316 317 316 316 315 316 320 321 323 324 325 327 325 327 327 319 322 326 326 329 328 323 325 329 328 326 325 330 335 333 330 329 329 329 329 328 328 328 328 329 329 330 330 330 330
317 316 315 315 313 313 315 315 311 308 308 308 312 315 316 316 315 315 316 316 317 317 317 317 317 316 319 319 317 317 316 316 317 316 316 316 316 316 316 316 316 316 316 317 316 316 317 315 317 321 321 323 323 326 328 326 330 329 322 321 326 326 327 327 323 323 325 325 324 323 329 335 331 328 329 328 329 329 328 328 327 327 328 329 330 330 330 330
316 314 314 314 313 312 314 315 312 308 308 309 311 314 316 316 316 316 316 317 317 318 318 317 316 316 318 318 317 317 318 319 318 316 317 316 316 316 316 316 316 316 316 317 316 316 317 316 317 319 319 320 321 324 324 323 326 326 324 323 324 326 324 325 324 321 321 324 325 323 326 334 331 326 330 329 329 329 328 329 328 327 327 329 330 330 330 331
314 312 312 313 312 310 313 315 311 308 308 310 313 316 316 317 318 318 318 318 318 318 319 317 317 319 318 316 317 319 321 322 320 318 317 316 316 316 315 316 315 316 317 316 316 317 315 315 316 318 319 319 321 325 324 322 325 326 328 326 323 323 323 325 327 324 322 325 326 324 325 331 331 328 330 329 329 330 328 329 328 328 328 329 330 330 331 331
312 311 310 311 311 309 312 314 310 308 310 313 317 320 319 320 321 322 321 321 321 322 321 320 321 321 319 318 320 322 321 320 319 317 316 316 316 316 316 315 315 316 315 316 317 316 315 316 317 318 320 322 323 325 327 326 327 330 333 335 330 326 326 329 329 325 323 325 327 326 328 332 334 332 329 329 329 329 329 328 328 328 327 328 330 331 330 331
312 309 309 309 309 309 313 313 309 309 314 318 321 323 322 322 324 325 322 322 322 323 322 321 322 322 321 321 322 322 320 318 318 316 316 316 315 316 316 315 316 317 315 318 317 313 315 319 320 319 320 323 322 322 325 325 325 327 331 336 332 326 330 331 326 323 322 325 327 325 328 331 333 333 328 328 330 328 328 327 327 328 327 329 331 330 330 330
310 308 307 308 309 312 313 311 308 313 319 321 322 322 322 322 325 325 322 322 321 321 322 322 322 322 322 322 321 321 320 318 317 317 316 316 317 316 315 316 317 317 315 313 314 318 320 320 322 322 319 318 319 319 322 324 325 328 329 330 327 325 331 328 323 323 321 324 329 326 325 327 329 333 328 326 328 328 327 327 326 327 327 329 331 330 330 329
308 307 307 308 311 314 313 308 310 317 321 321 320 321 321 322 324 324 323 323 322 321 321 322 322 322 322 321 321 320 319 319 317 316 317 316 317 316 315 317 317 317 315 312 316 326 326 322 322 320 314 312 315 319 322 323 326 329 328 325 326 325 326 324 321 322 322 325 330 327 326 328 328 331 330 325 327 328 327 327 327 326 327 329 330 330 329 329
307 307 307 310 313 313 309 308 313 320 321 320 321 321 322 324 324 324 323 323 323 321 321 323 322 321 321 320 319 319 319 319 317 316 317 317 316 317 315 316 318 317 316 315 320 324 322 320 317 311 309 312 316 317 319 321 322 326 328 325 325 324 323 324 321 321 323 323 324 324 326 330 327 328 329 325 326 328 327 328 327 327 327 328 330 329 328 328
307 307 308 312 313 310 309 312 316 320 320 320 322 322 323 324 325 325 324 323 324 325 322 321 320 319 319 318 316 317 318 317 317 317 317 317 316 316 315 315 317 317 314 316 320 321 320 316 310 307 311 316 317 317 319 321 319 319 325 329 328 325 323 322 319 322 327 323 323 324 327 334 331 329 332 328 326 327 327 327 326 327 327 327 329 329 328 329
307 307 309 313 312 310 313 316 317 318 320 321 322 323 324 323 324 325 324 325 328 329 322 317 318 318 317 318 316 316 317 316 317 317 316 317 316 315 315 314 315 315 314 314 318 320 318 313 310 312 316 317 318 319 318 321 321 317 321 328 329 326 324 321 322 327 332 330 325 321 326 337 334 329 330 329 329 330 327 326 326 326 326 326 328 329 329 330
307 308 311 313 312 313 317 317 317 319 321 321 320 323 323 322 325 324 327 333 330 323 320 317 317 318 317 318 317 316 318 318 317 316 316 316 316 315 316 315 314 315 314 314 318 319 316 313 313 316 318 319 320 319 315 320 324 319 316 320 322 323 324 323 324 329 333 328 320 320 326 331 330 327 324 326 332 333 328 326 326 326 326 326 326 327 328 329
307 309 311 314 313 315 318 316 318 320 320 320 318 321 320 320 323 321 327 334 325 317 320 321 318 319 318 318 317 317 318 319 316 316 316 316 316 316 316 316 314 314 313 315 320 317 315 317 317 318 321 322 321 317 316 321 323 317 314 317 321 323 323 325 325 327 329 323 319 325 326 322 326 328 322 323 332 335 332 330 326 325 327 326 326 327 327 328
308 309 312 314 312 314 317 316 317 318 317 319 318 319 320 320 321 324 332 330 319 317 322 321 320 319 319 319 318 317 318 318 317 318 316 315 317 316 315 315 315 315 312 317 324 316 315 319 317 320 323 320 318 317 317 318 318 317 316 316 319 321 322 323 323 326 328 321 321 329 322 317 331 336 326 327 337 343 343 338 329 324 326 327 327 327 327 327
309 310 312 314 312 312 315 316 317 316 315 317 317 318 319 319 320 327 333 326 317 320 322 320 322 320 319 320 318 317 318 317 318 319 317 317 317 315 316 314 313 316 313 316 326 319 314 316 314 318 320 317 316 316 316 317 316 315 314 317 319 319 322 324 322 327 330 323 325 328 320 317 331 341 335 331 333 342 348 342 329 322 324 327 327 327 327 327
309 311 312 314 312 312 315 316 317 317 316 316 318 320 318 322 330 332 329 324 320 322 321 321 323 321 320 322 321 319 318 317 318 318 316 316 315 314 315 313 314 322 321 319 324 320 315 315 313 316 316 314 314 313 312 314 311 311 315 321 321 322 328 330 329 331 328 325 328 327 322 319 323 335 337 330 325 331 338 339 330 322 323 326 326 327 327 327
310 311 313 314 311 312 314 316 318 318 316 317 322 324 321 326 339 337 325 321 323 323 324 325 325 324 323 323 324 321 319 318 316 316 317 317 318 318 316 315 320 328 329 325 324 319 319 319 315 315 313 313 316 315 312 311 310 315 325 324 319 323 327 328 332 331 325 324 326 325 323 319 320 327 329 325 323 324 327 333 330 324 321 324 325 327 327 327
311 312 314 314 311 311 314 316 320 319 315 320 325 326 329 329 331 333 327 323 324 326 327 325 325 326 325 324 325 323 321 319 316 316 317 317 320 319 315 316 322 324 323 323 323 322 321 320 316 315 315 314 317 320 317 317 318 323 334 332 327 327 324 325 330 327 323 322 319 321 320 317 323 327 321 320 322 320 319 321 323 320 319 322 324 325 327 327
311 313 315 315 311 309 312 316 319 317 315 322 325 326 337 336 328 328 331 328 323 325 325 325 327 327 325 325 325 324 321 319 318 316 315 317 322 320 315 315 315 319 323 321 323 327 325 322 319 318 319 316 315 319 317 318 319 322 330 331 330 331 324 324 328 323 321 322 318 319 318 316 324 325 320 321 321 318 316 316 318 320 320 322 323 324 326 326
312 315 315 313 309 308 312 317 315 314 317 323 325 327 332 333 328 327 333 332 327 327 326 326 330 331 326 327 325 322 321 319 318 318 320 326 329 325 323 319 315 322 333 326 321 326 326 322 321 319 318 318 318 317 315 317 318 316 321 322 323 329 325 321 326 322 317 323 326 322 317 317 322 322 320 319 319 320 321 320 321 323 323 323 323 324 325 325
314 315 313 311 309 308 314 318 313 315 320 325 333 335 330 329 330 330 333 334 330 329 326 325 335 338 332 333 330 320 319 319 319 322 324 326 326 323 322 320 316 320 330 326 317 320 322 320 321 319 315 317 318 315 313 319 321 314 317 321 317 323 329 323 321 322 319 325 329 321 318 320 321 323 322 318 320 323 322 323 324 324 324 325 324 324 324 324
315 314 311 309 308 310 315 317 315 317 323 330 339 339 335 334 331 328 329 328 325 330 331 326 333 337 331 336 336 325 319 318 321 325 323 321 322 321 319 319 318 316 322 326 319 318 320 320 323 321 317 317 317 315 313 314 321 321 319 321 315 316 327 324 316 319 322 323 323 319 321 326 322 320 323 324 327 327 323 322 323 324 324 324 325 325 325 325
314 312 312 312 310 312 313 313 318 321 323 333 338 335 335 333 327 328 330 324 321 334 344 332 325 326 326 330 334 330 323 317 322 327 322 320 322 320 319 320 318 316 320 322 319 318 320 323 325 321 320 320 315 315 316 311 316 327 322 318 316 315 325 329 324 327 327 323 324 324 323 327 326 323 326 329 329 330 330 325 321 323 324 322 324 325 325 326
314 315 319 319 314 311 312 314 320 323 324 335 340 334 332 329 320 323 327 322 321 336 347 334 321 322 326 327 325 325 324 319 325 328 323 322 322 318 319 321 319 318 316 317 320 320 319 323 326 322 320 321 319 320 325 319 315 319 318 316 318 318 322 328 326 326 324 321 324 328 324 323 325 326 327 327 326 328 331 330 326 324 323 322 323 323 323 325
315 320 324 322 316 312 315 319 319 322 328 337 341 332 327 326 322 320 323 322 323 334 337 327 322 323 325 326 323 321 323 322 325 327 322 321 321 318 318 319 318 320 316 317 324 322 318 318 322 324 320 320 327 327 327 329 324 320 321 323 326 324 319 321 322 322 326 324 323 326 327 325 328 329 326 324 327 327 329 335 333 324 322 323 323 323 323 323
316 323 325 321 319 316 318 320 318 324 330 331 335 333 324 323 322 320 323 321 321 328 330 326 327 325 323 325 321 320 325 326 326 326 324 321 321 319 319 318 318 319 317 319 323 323 323 321 319 327 328 324 328 324 319 323 325 325 329 329 329 324 317 317 320 321 326 330 327 325 326 331 335 332 327 325 328 328 327 330 326 320 321 323 322 323 323 323
319 327 325 320 321 319 319 320 318 325 331 327 328 332 326 321 322 321 322 322 321 322 325 329 332 327 325 326 321 323 331 331 327 327 325 322 322 322 320 318 318 319 321 326 327 323 323 324 324 328 331 328 324 319 316 319 324 329 330 325 324 323 321 323 323 321 323 327 328 326 325 333 336 330 329 329 327 324 321 320 320 320 322 322 321 323 323 322
320 329 326 321 322 321 319 321 318 321 331 330 326 328 324 322 323 322 321 321 322 321 321 326 329 327 326 324 322 329 336 331 326 326 325 323 323 323 320 319 318 319 325 327 323 319 322 331 333 327 325 324 320 315 314 316 323 329 325 323 324 323 327 332 329 327 326 320 322 325 325 334 338 326 325 326 320 319 319 318 320 322 322 321 322 322 321 322
321 328 326 322 323 321 318 320 319 323 332 330 323 323 324 323 323 323 322 322 322 322 323 325 323 323 323 321 324 330 331 328 323 322 324 323 322 322 320 319 318 319 324 324 319 318 323 328 331 330 331 330 326 323 320 320 326 328 326 327 325 321 327 334 330 329 327 321 324 325 324 336 337 319 315 318 317 319 320 320 320 320 321 322 321 321 321 322
319 324 325 323 323 321 319 319 323 330 335 330 324 325 324 322 323 324 323 323 322 323 327 326 322 322 321 320 325 326 324 326 323 320 323 324 321 321 320 319 319 319 320 321 320 319 321 323 326 330 333 330 330 334 332 329 330 327 327 328 325 322 325 328 326 326 325 324 327 327 326 337 336 320 317 319 317 318 319 320 321 320 321 322 321 322 322 322
318 323 325 324 323 321 321 322 326 333 336 332 327 328 326 321 320 322 323 322 321 321 324 323 320 322 324 324 327 326 324 327 326 323 324 325 323 321 321 320 320 321 321 320 319 321 324 325 324 328 330 328 332 336 332 329 327 326 328 329 326 324 324 324 324 326 326 322 323 327 330 334 333 327 326 325 322 323 321 319 320 321 322 322 322 322 322 323
322 325 325 326 324 322 321 320 322 328 334 334 329 325 326 324 319 319 321 322 321 321 322 323 321 322 327 330 331 329 327 327 328 327 327 328 328 322 320 323 323 325 327 322 318 323 328 326 327 335 337 333 335 335 327 324 325 326 327 328 326 325 324 325 327 327 328 326 327 332 330 327 328 330 329 328 328 327 322 318 319 321 321 321 322 322 322 322
323 326 325 326 325 323 322 319 318 321 324 328 327 324 326 328 323 321 322 322 322 322 321 323 324 324 327 331 331 329 329 330 331 330 327 327 328 323 319 321 322 322 326 321 317 327 335 329 326 334 335 330 334 332 324 322 325 326 326 325 326 325 323 325 326 326 326 325 331 335 327 322 328 331 328 327 329 327 320 317 318 320 320 321 322 321 322 322
322 325 324 325 324 323 324 322 319 321 322 324 325 326 328 328 325 324 323 322 323 324 324 326 326 327 329 331 332 330 329 330 329 328 327 326 328 328 323 321 321 318 321 321 318 327 338 330 321 324 327 327 331 329 324 324 325 325 326 325 324 325 323 324 328 328 325 324 331 333 325 323 329 332 328 324 322 322 318 316 319 320 320 321 321 321 322 322
320 323 323 325 325 323 324 322 318 320 326 328 329 330 331 330 325 322 322 325 328 326 326 329 328 328 332 335 338 335 331 330 328 326 327 326 325 328 326 322 321 317 318 324 320 320 328 328 322 323 324 324 327 326 323 324 323 322 326 327 326 326 325 325 328 327 324 325 328 326 324 327 329 327 326 320 316 316 317 318 320 320 320 321 321 321 321 320
322 324 323 325 327 324 323 322 319 320 325 326 327 328 331 332 328 324 323 327 330 327 326 331 329 326 330 337 340 335 331 335 334 328 326 326 324 326 327 324 322 320 322 326 324 319 319 322 323 325 326 324 326 327 325 324 323 322 327 332 330 327 326 325 324 325 323 323 325 321 322 332 330 319 316 316 315 317 318 318 320 320 321 321 320 321 320 319
325 326 324 327 331 327 322 320 320 324 327 328 327 327 329 331 327 326 325 323 325 328 329 330 328 325 327 333 333 328 325 328 330 325 323 324 324 324 324 321 319 322 327 325 323 324 323 322 322 326 328 325 324 327 330 328 325 324 326 329 327 324 323 321 321 322 320 319 323 322 324 332 326 313 312 315 315 316 318 318 320 320 321 321 320 320 320 320
325 326 324 327 331 326 321 320 322 325 327 329 330 327 326 326 322 324 328 323 320 323 325 322 322 325 329 330 328 325 321 320 320 319 318 320 319 318 319 319 316 320 328 327 323 325 329 330 327 326 326 326 323 325 331 332 329 328 327 324 320 320 323 323 322 322 318 316 320 323 325 325 317 312 317 319 314 315 318 318 319 320 321 321 321 320 321 320
Wind_Speed
14 14 13 12 10 9 8 7 6 4 3 3 3 3 2 2 3 4 5 7 9 10 12 12 12 11 10 7 6 5 5 7 9 10 8 5 3 1 2 5 8 9 9 10 10 10 8 6 4 2 1 1 4 4 3 4 7 4 2 3 1 3 3 4 5 5 5 4 4 5 7 9 4 4 7 6 6 8 6 4 4 4 7 9 10 14 17 15
13 14 13 12 11 10 9 7 6 4 2 2 3 2 0 1 2 4 5 7 9 10 12 12 11 11 9 7 6 6 8 10 9 7 4 2 1 6 8 9 9 9 9 10 9 9 6 3 1 1 2 2 4 3 2 4 6 3 3 3 2 4 2 3 9 6 5 8 7 7 7 8 7 7 8 4 4 6 6 4 6 9 10 10 14 17 15 13
13 14 13 13 12 10 9 8 6 4 2 2 3 2 1 1 3 3 5 7 9 10 11 12 10 10 9 7 7 8 11 10 5 5 5 5 7 10 9 8 8 8 7 8 8 7 4 2 1 3 4 5 4 3 3 3 3 1 3 2 3 5 0 2 11 9 11 17 12 7 7 7 8 8 6 5 4 4 5 6 7 11 13 13 15 15 13 13
13 14 13 13 12 11 10 8 7 4 2 1 3 2 1 2 2 3 5 6 9 9 11 11 10 10 10 9 7 9 12 7 6 5 5 7 9 8 7 7 6 6 6 7 7 7 4 3 3 4 6 5 5 6 4 3 3 1 3 2 4 5 3 4 14 16 18 21 15 11 8 7 8 8 7 8 5 2 5 9 9 14 17 15 14 13 12 14
14 14 14 13 12 11 10 9 7 5 3 0 2 3 2 2 2 3 5 6 8 9 11 12 11 11 11 10 8 11 10 4 4 5 6 8 9 8 6 5 5 6 7 8 8 8 6 4 3 4 5 3 3 3 2 3 6 4 2 3 3 6 4 7 19 22 20 19 17 13 8 7 8 6 7 8 2 3 2 8 11 15 18 16 16 14 13 15
15 14 13 13 12 11 10 9 8 6 4 1 2 3 3 3 2 3 5 6 8 9 11 12 12 12 12 12 11 12 6 3 2 3 7 8 9 6 4 4 6 8 9 10 9 8 7 4 2 4 4 2 2 2 1 4 6 4 2 3 6 9 9 12 20 21 21 20 15 11 8 8 6 4 6 5 1 3 1 6 11 14 16 17 17 16 16 15
17 16 14 13 12 10 9 9 8 7 5 3 3 4 4 3 3 4 5 7 8 10 12 13 13 12 12 13 12 10 5 4 3 5 6 6 6 4 3 5 7 8 10 11 11 10 8 7 5 4 5 3 2 2 2 5 5 5 3 4 8 13 12 14 19 18 19 18 12 12 10 6 3 2 4 4 1 1 3 7 10 14 15 15 15 15 17 16
18 18 16 14 12 11 9 8 7 7 6 4 3 4 5 5 4 5 6 7 9 10 12 13 12 12 12 13 12 8 4 5 4 5 6 5 5 3 4 5 7 9 10 12 13 13 11 10 7 5 5 3 3 4 5 6 5 5 4 4 9 12 12 16 18 16 16 14 13 13 6 1 1 1 1 2 1 2 5 8 10 13 15 14 14 14 15 15
20 19 18 15 13 11 10 8 7 6 6 5 4 4 5 6 6 6 7 8 9 10 12 12 12 13 13 13 11 5 4 6 4 4 6 5 3 3 5 6 8 10 12 13 14 15 14 11 8 6 5 5 7 4 4 5 2 4 7 9 11 11 13 17 16 15 17 14 14 10 4 1 3 5 2 0 1 2 4 8 9 11 14 14 14 14 14 13
20 20 19 17 15 12 10 9 8 7 6 6 5 5 6 6 7 7 8 9 10 11 11 12 12 13 13 13 9 3 5 7 5 4 6 5 3 2 6 7 9 11 12 12 13 14 14 11 9 9 9 7 7 4 6 3 6 13 17 16 14 12 11 15 15 13 16 12 9 8 2 2 4 6 1 2 4 5 5 8 9 11 14 14 15 15 13 12
19 20 19 18 17 14 11 10 10 9 7 6 5 5 6 7 8 8 8 9 10 11 11 11 13 13 14 13 6 2 3 3 4 3 4 4 2 2 6 7 9 11 12 12 12 12 14 11 6 5 5 5 5 7 8 7 14 19 22 16 11 12 11 12 14 12 11 4 5 10 5 2 5 3 2 5 8 8 7 8 9 11 13 14 14 14 13 12
19 19 19 19 18 16 13 10 10 10 9 7 5 6 7 7 8 9 9 10 10 10 11 11 12 13 14 12 4 1 2 2 2 2 3 3 0 3 5 7 9 10 11 11 11 12 14 12 6 1 5 8 4 5 7 12 16 16 16 9 5 8 7 6 8 8 5 2 10 12 4 5 4 4 4 5 11 8 6 5 5 8 10 11 12 13 14 14
19 20 20 20 19 17 15 11 10 9 9 8 7 7 7 8 9 10 10 10 10 10 10 11 11 13 14 9 2 1 3 1 2 2 3 2 1 2 4 7 8 10 11 9 10 11 11 11 7 5 12 9 4 5 9 13 14 10 8 5 3 5 1 3 4 6 2 6 15 7 2 4 5 8 4 3 8 5 3 2 2 4 7 9 9 11 14 14
20 21 21 21 20 18 16 14 11 9 9 9 8 8 8 8 9 10 11 11 10 10 10 11 11 13 12 5 1 2 2 3 3 3 2 1 2 2 3 6 8 10 9 6 6 8 10 10 4 9 11 8 9 12 9 7 7 5 3 3 3 2 3 4 2 6 2 8 15 4 2 5 7 8 4 2 5 3 4 3 3 5 7 9 8 10 12 14
21 22 22 22 20 18 16 15 12 10 8 9 9 9 9 9 9 10 11 10 9 10 10 11 11 13 11 3 1 1 1 4 5 5 4 3 3 4 4 6 7 9 7 4 4 5 8 8 4 9 10 12 16 11 4 4 4 3 2 1 2 2 2 5 2 10 5 6 11 3 1 5 6 6 5 6 7 6 6 6 5 6 8 10 10 10 11 12
22 23 22 22 20 18 16 15 13 10 9 9 8 8 9 9 9 9 9 9 9 9 10 10 10 11 8 3 1 1 2 4 3 3 3 3 4 5 6 6 6 7 7 5 4 3 4 6 7 10 13 12 10 7 4 3 3 4 1 2 2 2 1 3 2 9 7 4 6 3 1 3 4 5 10 11 9 8 8 7 7 6 8 10 11 11 11 12
24 24 23 22 20 18 15 15 13 10 9 9 7 6 7 7 7 8 8 8 8 9 10 10 9 9 5 1 2 4 6 8 6 4 3 2 4 5 5 7 6 6 7 5 4 2 2 5 9 8 6 5 3 5 4 3 3 3 2 1 2 2 2 1 2 6 6 4 3 2 1 4 4 5 14 15 11 10 10 9 9 8 9 11 12 13 13 13
26 25 23 21 20 17 15 14 12 9 8 7 4 3 4 5 6 7 6 6 8 8 7 6 6 4 1 1 3 7 11 11 8 6 4 3 3 4 6 8 8 8 7 4 3 5 3 4 7 3 3 3 2 5 3 3 4 3 2 1 1 1 1 3 3 4 6 4 4 3 3 7 5 4 13 16 14 13 12 10 10 10 11 13 15 15 15 15
27 26 23 20 18 15 14 13 11 9 6 4 3 2 1 3 3 2 3 5 7 5 2 3 4 1 3 6 8 11 12 9 6 3 2 2 3 4 5 6 7 6 6 3 4 6 4 3 3 1 1 1 4 5 6 7 5 5 4 4 3 1 2 4 4 5 7 5 3 5 4 5 4 4 9 15 16 15 14 12 11 12 13 16 17 17 18 18
28 26 22 19 16 13 12 11 9 6 5 5 2 2 2 2 1 1 6 6 4 3 3 5 6 6 9 11 11 10 8 6 4 2 0 3 4 4 5 5 5 4 4 1 1 3 4 3 2 4 5 6 6 5 5 5 5 6 5 4 4 2 3 3 3 4 6 5 3 4 4 5 5 5 8 14 15 13 15 13 13 15 15 18 20 19 20 19
28 26 21 17 13 10 9 8 6 4 6 7 5 6 6 6 3 4 9 5 1 3 6 7 8 10 11 11 10 8 6 3 4 3 1 4 4 3 4 4 3 4 4 2 0 1 5 3 4 7 8 6 5 5 6 5 5 5 5 4 2 2 4 4 1 2 4 4 3 2 2 5 5 5 6 11 11 13 18 17 16 17 16 19 21 21 21 19
28 25 20 15 11 8 6 5 3 4 6 7 8 9 7 6 3 4 7 4 5 5 5 6 8 11 10 8 6 5 4 3 4 4 2 2 1 2 2 3 4 1 4 3 2 4 5 2 8 9 7 5 5 5 7 6 5 4 4 4 1 2 3 4 3 1 2 3 2 2 2 5 5 5 6 12 13 13 19 21 18 17 18 21 23 23 22 20
27 23 18 12 8 6 4 3 4 4 6 6 8 9 7 5 4 5 4 4 6 5 3 5 7 9 7 5 4 2 2 2 3 5 1 2 1 1 2 2 4 1 3 3 4 3 2 4 7 6 5 7 6 5 7 6 4 3 4 4 2 3 1 2 3 2 2 2 1 1 1 5 4 2 4 10 13 9 10 16 18 18 19 22 24 23 22 22
26 21 16 11 7 4 1 4 4 3 5 6 8 8 6 4 4 5 4 2 4 4 3 5 6 6 5 4 3 2 2 2 4 4 1 3 2 0 1 1 3 2 3 2 7 5 3 6 4 4 4 7 7 5 6 5 2 1 3 5 2 3 3 2 1 1 3 2 2 4 4 5 4 2 4 5 7 8 7 9 13 16 17 18 21 23 22 22
24 19 13 9 6 2 4 5 4 3 6 6 6 6 4 3 4 4 3 1 2 5 4 4 5 3 3 4 2 2 1 3 4 3 2 4 3 1 0 2 3 3 2 5 7 3 3 4 3 3 4 6 7 4 3 5 3 2 3 6 6 5 6 3 2 3 5 4 3 3 3 5 5 3 5 4 2 6 7 9 13 14 14 16 20 23 23 23
21 16 11 9 5 3 5 5 4 5 6 5 4 3 3 4 5 4 2 3 1 5 3 2 3 2 3 4 1 1 2 2 1 1 3 3 3 1 1 0 2 2 3 5 5 2 2 3 4 2 4 6 6 4 3 5 6 1 3 5 5 6 7 6 5 4 3 1 4 2 4 3 5 4 5 5 4 5 5 8 12 14 15 17 19 22 23 24
19 15 10 8 4 3 4 4 4 5 4 2 1 1 2 5 6 3 2 5 1 3 3 1 1 1 1 4 1 1 1 3 1 1 2 1 2 1 1 2 2 2 2 3 3 1 2 3 6 5 6 6 5 3 4 5 7 1 2 6 7 7 7 7 6 4 2 3 3 4 4 1 4 4 6 5 4 5 5 7 10 14 18 18 19 21 22 23
17 14 9 6 4 2 4 4 4 4 3 1 2 3 4 6 6 2 4 5 1 3 2 1 1 1 3 3 2 2 2 3 0 1 2 2 2 1 1 1 2 1 2 5 3 3 1 2 3 4 6 4 1 3 6 7 4 4 3 6 6 6 6 5 6 4 1 2 3 5 1 1 4 5 5 3 3 6 7 8 8 14 19 20 20 21 21 21
15 13 9 5 3 0 3 4 3 3 1 2 3 6 7 6 4 2 5 3 2 2 1 1 2 2 3 2 3 4 3 2 1 0 1 2 2 2 2 2 5 4 4 5 5 4 1 1 2 4 6 1 3 4 5 6 1 3 6 7 5 5 5 4 5 4 3 3 2 6 1 1 4 5 4 4 2 4 7 6 5 10 17 21 22 22 21 20
13 11 9 5 3 2 3 3 2 1 1 3 4 4 4 3 1 4 3 1 1 2 1 2 3 3 3 2 1 2 1 1 1 1 1 2 3 4 4 2 5 6 4 6 3 2 3 2 0 3 3 2 3 1 3 3 0 5 7 6 6 6 5 4 3 4 4 3 5 6 2 3 2 5 4 1 1 4 5 6 5 4 12 18 21 22 21 21
11 10 9 6 3 4 5 4 4 3 3 3 3 1 1 0 3 6 1 2 1 2 2 2 3 2 3 2 2 3 2 2 3 2 3 4 6 7 5 2 3 5 5 7 4 4 6 4 2 3 3 1 1 2 2 2 3 6 5 5 4 3 4 4 5 4 4 1 5 6 3 4 1 4 4 4 6 5 4 5 6 3 5 12 17 19 20 20
10 10 9 7 4 6 7 5 4 5 4 3 2 1 3 2 3 2 1 2 1 2 1 1 2 3 3 2 2 3 2 3 4 4 3 2 4 5 3 1 1 3 3 3 3 5 5 2 5 5 3 6 5 3 4 6 6 5 5 5 4 2 4 3 4 3 1 2 2 3 2 2 2 5 5 7 8 7 7 9 8 9 7 6 12 15 17 18
10 9 8 7 5 6 8 5 4 5 5 3 0 2 5 4 0 2 1 2 1 2 0 1 2 2 2 3 3 3 3 2 3 3 2 2 5 3 3 1 2 2 1 1 1 4 3 4 8 6 4 7 5 4 3 4 5 5 3 4 3 2 3 1 3 2 2 4 3 3 2 1 3 4 5 7 9 10 10 8 7 9 8 5 5 10 13 15
10 9 8 7 4 6 8 5 3 4 4 2 1 3 5 2 2 2 1 2 2 1 1 1 2 4 4 3 2 2 3 3 3 3 3 4 5 4 5 5 4 3 3 3 2 2 2 3 6 4 3 7 4 4 3 3 3 2 4 4 3 4 3 2 2 1 2 4 4 4 2 1 1 3 5 8 9 7 6 5 5 6 7 7 2 5 9 11
9 9 8 5 3 6 8 6 4 2 2 1 3 5 3 2 2 2 2 3 1 0 1 1 3 5 4 3 3 1 3 2 3 5 5 4 3 2 3 4 5 3 4 3 0 1 4 2 5 4 4 4 4 1 3 5 3 2 2 4 2 3 4 3 2 4 2 1 3 4 1 3 3 4 7 8 6 6 9 8 7 7 7 7 4 1 5 8
9 8 6 4 3 6 8 6 4 2 2 1 5 4 2 4 2 3 3 1 1 2 0 3 5 5 4 4 4 4 4 3 3 4 4 3 1 2 2 3 4 3 3 4 1 1 3 1 5 6 4 4 5 2 1 4 1 1 3 2 3 3 6 5 1 1 3 3 1 2 2 5 3 2 6 9 7 8 11 10 10 8 6 5 4 2 4 6
8 5 4 2 3 6 8 7 4 2 1 3 5 1 3 2 3 4 2 1 2 2 4 2 2 2 1 2 3 5 5 4 3 4 3 3 3 4 4 3 2 3 2 3 2 2 4 1 5 4 2 4 7 3 3 6 3 2 2 2 2 2 4 4 2 3 5 2 1 3 2 5 3 0 5 9 9 8 8 8 11 10 6 5 5 5 6 7
7 3 2 1 3 6 7 6 4 3 0 4 2 2 2 1 2 3 2 2 2 3 6 3 0 1 2 1 2 5 3 2 2 3 3 2 2 2 3 3 2 7 3 3 2 1 3 1 6 2 2 6 8 4 3 7 6 5 5 3 2 2 1 2 2 1 2 1 2 4 3 2 1 2 5 7 6 8 8 7 9 9 8 7 7 7 8 9
7 2 2 0 4 6 7 5 4 2 2 3 1 1 1 2 3 2 2 2 2 4 4 2 1 2 2 3 1 3 3 2 1 3 2 2 1 1 2 1 2 9 10 5 4 1 2 2 4 4 2 4 6 5 2 5 6 5 3 3 2 3 2 1 2 2 1 2 1 3 3 2 4 5 4 5 7 7 6 6 6 9 11 9 8 8 9 10
7 2 2 2 4 6 6 4 2 1 3 1 3 2 1 2 1 1 1 2 2 3 2 2 2 2 1 1 1 0 3 3 2 3 2 1 1 1 2 1 2 5 9 10 6 1 2 4 1 6 5 3 2 2 0 2 3 4 4 4 3 2 1 1 1 2 2 3 2 0 2 4 5 4 5 6 7 6 6 5 6 11 13 11 10 9 9 10
5 3 1 4 5 5 5 3 0 2 3 1 2 1 1 1 1 2 2 3 3 3 4 4 4 3 2 2 1 1 3 3 3 3 2 1 2 1 2 3 3 3 3 7 5 1 1 3 2 3 4 3 1 3 2 2 2 4 3 2 0 1 1 2 1 2 1 2 2 3 0 6 6 3 4 6 6 6 6 5 6 8 10 11 12 11 10 10
2 1 0 5 6 6 4 1 1 2 2 1 1 1 2 1 1 1 3 4 4 4 4 4 3 2 2 2 2 2 3 3 3 3 2 0 2 2 4 6 4 2 3 3 2 1 2 3 3 1 0 1 5 6 2 0 4 5 3 2 2 1 3 4 1 2 1 2 2 3 1 5 6 3 3 5 8 10 10 8 7 5 5 7 8 8 9 10
2 1 1 4 7 6 2 1 2 2 0 2 1 1 2 0 2 1 2 4 3 3 4 3 1 2 2 1 2 3 3 3 3 1 1 1 1 2 6 6 2 2 4 2 2 1 2 3 3 2 3 4 6 6 2 3 5 5 3 2 2 2 2 4 4 3 2 1 1 2 1 5 6 5 6 9 11 12 11 10 9 9 9 8 7 7 9 10
3 3 1 4 7 6 2 1 2 1 3 3 2 1 1 2 3 2 1 2 2 2 3 2 1 2 2 2 3 3 2 3 2 1 1 1 1 3 7 6 2 2 3 1 1 1 1 1 3 3 3 5 6 6 6 5 4 2 2 3 2 2 3 2 2 3 1 2 4 3 2 6 6 5 7 9 9 11 14 12 10 12 13 11 11 12 12 13
3 3 2 4 7 6 2 2 3 2 2 1 2 0 1 4 4 4 4 3 4 3 4 1 1 3 3 3 5 4 3 4 2 1 1 1 1 3 8 9 6 5 4 3 2 3 2 1 2 4 3 2 1 2 3 3 3 1 2 5 3 3 3 1 1 3 1 3 3 4 4 6 7 6 7 7 5 8 14 13 10 12 13 13 14 13 13 15
1 1 2 2 4 6 3 3 1 2 2 2 2 1 1 2 2 4 7 5 5 6 5 2 2 4 5 5 6 5 6 4 3 2 2 1 2 3 6 8 9 9 6 5 5 3 4 2 2 5 6 6 5 6 5 1 1 2 4 5 3 2 2 2 3 1 2 2 1 4 5 3 8 8 7 7 5 5 9 11 11 11 11 12 13 11 10 12
1 1 0 1 2 4 4 4 2 2 2 3 3 1 1 2 0 3 5 3 3 5 5 4 4 3 2 3 5 3 4 5 5 4 1 1 3 3 4 6 9 10 6 5 6 4 4 3 1 4 4 5 6 5 2 2 1 2 2 4 4 3 2 3 1 3 3 3 3 6 3 2 6 8 7 8 7 5 7 10 11 10 8 9 9 6 4 6
2 0 1 2 1 3 2 4 4 4 3 2 2 1 2 2 2 2 2 3 3 4 4 4 6 3 4 5 5 2 2 4 4 2 1 1 2 3 5 5 6 10 8 5 6 4 5 1 1 3 0 3 3 2 0 2 2 2 3 4 5 4 2 3 4 5 5 4 5 5 4 4 7 7 6 7 7 7 8 9 9 8 4 3 1 2 3 2
2 1 0 1 2 4 3 5 4 5 3 1 1 1 3 4 3 1 0 3 3 4 4 3 3 4 2 5 6 4 2 2 1 2 1 1 2 2 3 2 3 9 9 5 5 3 4 1 1 1 2 3 3 4 2 2 1 3 3 5 4 4 5 5 4 4 5 5 4 3 2 6 8 6 7 10 11 10 7 6 4 2 3 5 7 8 8 8
2 2 1 1 3 4 4 5 2 5 2 0 1 1 3 5 4 2 2 4 3 2 4 6 4 1 2 4 7 5 5 7 5 3 4 3 2 0 1 1 1 5 7 3 2 3 2 0 0 3 3 4 5 5 3 2 1 2 5 5 4 4 2 1 1 0 1 3 2 3 2 6 5 4 10 15 14 8 3 1 2 5 7 8 8 9 9 9
4 3 1 1 1 2 2 2 2 5 2 0 2 3 2 3 5 5 2 4 3 3 4 9 8 3 4 6 8 6 7 9 8 6 8 6 2 3 2 1 3 2 5 2 1 2 3 2 1 4 4 3 4 5 5 4 4 3 6 6 5 5 3 1 1 1 1 3 4 4 3 5 4 10 16 17 13 5 2 5 6 7 8 7 8 9 8 7
5 4 1 2 0 2 1 0 1 3 3 3 4 3 2 4 7 6 4 4 4 6 12 15 10 5 5 6 5 7 7 7 4 3 7 5 2 4 3 2 3 2 0 2 1 1 3 4 1 3 2 4 5 4 4 4 7 4 5 4 3 4 3 3 3 3 2 1 0 1 3 6 7 11 11 12 13 9 3 6 7 5 5 6 6 6 5 4
Wind_Direction
14 16 17 17 20 21 19 17 20 27 50 80 111 122 90 45 27 29 23 22 23 22 22 17 14 17 17 11 352 336 331 330 323 325 324 313 298 252 114 98 91 87 81 74 72 74 84 87 75 96 122 66 69 85 121 166 173 166 104 95 164 178 186 197 174 164 139 151 182 173 151 138 159 163 135 117 105 105 99 114 120 128 150 164 166 165 170 164
15 15 16 18 20 22 20 20 21 26 50 105 143 152 141 19 11 19 17 17 17 18 19 15 16 16 13 5 346 336 336 334 330 340 352 343 108 124 108 100 94 85 78 70 70 76 92 109 86 154 154 115 94 91 127 179 171 128 89 109 212 191 199 182 152 145 135 147 154 151 150 143 153 156 146 131 106 121 107 107 126 119 124 145 155 164 172 167
15 15 16 18 20 22 21 21 21 24 48 137 168 188 236 350 358 15 13 10 10 12 15 14 15 12 10 2 350 344 343 349 13 38 58 84 115 117 104 104 98 84 72 60 57 57 70 111 128 145 131 126 136 156 176 180 164 108 96 88 254 201 81 87 135 142 148 144 140 143 147 140 150 161 165 152 140 157 154 151 145 136 139 146 158 166 171 173
16 14 14 16 18 21 21 21 19 18 28 146 188 217 260 328 352 9 5 3 3 5 10 12 12 11 8 0 353 348 348 10 63 63 76 105 124 119 104 105 91 69 50 37 28 18 25 67 101 126 122 131 167 185 197 178 148 84 103 150 220 158 75 85 129 133 141 140 137 141 142 149 168 180 177 150 139 238 194 184 176 159 157 153 160 167 173 182
16 14 13 13 16 18 19 18 16 11 3 271 212 237 264 313 342 354 355 358 356 358 6 10 11 9 8 3 352 346 355 42 64 66 99 119 130 122 106 93 64 43 28 20 10 14 27 47 86 122 125 135 167 173 220 168 130 76 78 153 141 120 108 124 131 135 142 139 136 139 144 163 171 167 164 154 140 324 228 206 193 166 162 157 161 170 180 189
18 14 12 10 11 13 15 14 11 7 355 323 248 251 264 297 321 331 341 347 346 353 360 6 10 8 7 3 350 342 358 78 40 101 123 129 134 126 104 67 46 36 25 21 19 29 33 33 78 134 122 86 99 115 211 168 136 104 73 62 83 115 129 134 134 140 145 138 136 149 156 160 162 144 164 177 359 1 146 194 186 167 166 166 166 173 182 194
19 16 12 9 6 5 6 7 6 2 351 328 274 260 268 285 303 314 326 335 338 347 355 3 7 5 4 358 350 339 349 53 74 141 144 136 136 126 95 58 42 37 30 28 32 39 41 45 60 106 94 77 120 126 124 132 126 119 106 42 81 106 116 132 134 136 142 137 141 154 152 157 163 144 181 209 331 32 147 160 173 171 171 175 175 177 184 192
18 16 14 8 3 359 356 356 355 353 348 335 296 270 269 278 289 303 316 326 332 342 351 359 2 1 359 354 352 345 2 49 86 160 168 151 132 104 74 48 39 32 29 34 40 40 39 44 49 74 78 79 136 141 112 99 81 83 100 86 87 94 107 130 131 130 133 131 143 144 129 141 10 346 214 208 122 109 142 145 159 171 175 182 184 183 188 189
15 14 12 8 3 355 347 342 340 341 342 337 315 281 271 276 284 297 310 319 327 337 346 353 356 355 354 352 353 359 45 57 82 169 181 168 138 83 43 30 29 20 24 37 43 41 41 47 55 78 99 106 109 114 64 53 42 77 94 96 91 92 109 127 125 124 129 130 141 127 38 25 32 350 338 125 163 128 143 151 152 165 175 185 190 189 191 189
11 10 8 7 3 355 343 333 327 326 330 333 321 293 277 275 281 291 302 313 320 330 340 348 351 350 351 350 353 43 71 57 76 154 186 186 170 58 19 12 15 11 17 31 38 40 39 44 67 89 98 100 93 54 4 28 124 103 95 85 90 102 107 124 121 119 130 133 147 127 92 183 29 4 321 232 199 161 159 165 164 171 178 187 194 192 192 193
8 5 3 2 1 357 345 329 320 316 315 319 315 295 281 274 277 286 295 305 314 326 337 347 350 350 347 341 342 91 67 39 72 123 175 185 183 20 5 0 9 7 10 23 30 26 17 27 69 103 96 109 100 54 41 108 120 107 102 81 72 95 97 117 118 125 130 122 164 133 119 281 345 349 238 214 199 187 174 170 176 179 183 192 198 198 197 197
3 360 358 356 356 355 347 330 318 311 303 301 297 285 279 271 273 281 291 300 312 325 337 348 350 349 343 332 323 77 347 355 78 101 151 168 16 16 7 4 8 6 6 15 19 12 7 18 29 271 142 137 125 67 80 114 109 99 100 84 46 68 86 120 114 141 140 126 159 128 74 320 305 269 270 212 200 200 188 180 185 186 193 203 207 207 203 204
355 353 351 349 348 349 347 334 318 311 301 290 280 279 275 268 271 278 287 297 311 324 335 345 345 345 340 330 316 323 333 39 88 95 126 138 31 22 9 8 12 5 359 2 7 7 5 10 23 126 138 127 91 112 124 109 95 85 75 78 80 48 71 179 134 169 162 156 158 119 350 275 284 268 277 198 200 207 210 229 204 200 211 214 218 213 209 210
348 346 344 343 341 342 343 336 321 311 304 292 278 272 267 266 268 273 284 295 308 320 330 336 339 341 338 336 23 332 350 71 87 91 88 54 34 49 20 8 9 1 350 352 360 357 6 14 57 126 126 122 119 122 112 74 68 85 65 41 85 96 226 251 172 167 141 175 173 97 359 239 283 277 272 187 206 214 217 242 224 213 216 219 224 214 211 213
343 341 340 337 335 335 336 333 323 312 311 300 281 269 264 264 265 271 282 293 306 314 324 329 333 340 340 352 81 342 73 77 84 80 58 39 33 43 39 22 17 10 356 341 343 343 7 23 104 121 108 121 127 116 56 21 30 51 85 322 320 131 240 301 223 174 161 183 191 150 30 258 283 269 245 205 207 219 220 230 225 217 216 221 227 217 215 220
339 337 336 334 331 330 330 328 323 318 316 308 290 273 267 265 267 272 280 291 302 310 318 320 328 340 340 336 347 32 34 26 58 73 49 34 7 13 19 16 23 24 8 348 344 336 355 39 102 113 114 124 121 103 55 36 360 354 70 209 235 115 75 318 246 196 183 148 193 199 185 272 292 233 217 209 212 223 228 236 237 234 227 225 227 224 222 230
336 335 333 331 328 326 324 323 325 324 320 313 298 284 279 274 272 275 281 289 299 306 311 311 319 328 325 326 8 13 354 341 330 302 305 323 329 343 335 331 343 355 0 354 355 9 22 94 122 124 107 107 94 98 80 353 298 301 24 90 213 154 126 247 273 221 190 154 185 185 204 257 293 213 201 207 212 218 227 235 239 237 232 229 227 229 230 235
335 333 330 328 324 323 321 321 327 331 329 324 315 308 288 280 282 280 284 293 296 302 309 314 329 336 313 262 320 337 335 325 312 294 299 310 303 308 303 314 327 335 355 7 20 40 48 97 128 135 32 46 77 99 113 234 213 203 187 107 266 258 163 196 247 213 172 159 172 148 236 260 290 218 198 206 208 214 223 226 234 232 230 227 223 229 232 232
333 332 329 325 323 322 319 322 333 338 351 2 356 9 284 275 282 272 315 312 293 289 294 317 339 332 258 281 303 325 327 315 304 288 297 322 319 326 330 331 326 336 2 12 17 27 35 38 62 75 320 213 188 160 174 199 175 158 164 140 146 204 257 221 246 229 163 136 188 182 220 256 264 217 199 207 208 213 222 225 229 226 228 227 221 227 230 230
333 331 328 325 323 323 321 327 343 355 43 59 35 51 55 10 76 347 339 326 279 269 277 295 303 286 283 298 315 330 330 308 293 278 343 351 344 350 355 336 323 352 6 349 334 7 43 44 327 236 230 230 215 185 162 160 129 122 120 101 134 158 282 260 283 258 161 131 242 207 207 252 247 233 210 204 205 213 221 227 226 222 226 225 221 224 229 232
333 330 327 325 326 329 327 336 359 41 69 66 73 85 60 36 56 337 335 336 313 308 292 294 294 288 295 312 326 335 338 320 298 290 286 340 344 331 333 344 16 11 334 333 101 13 54 54 261 233 222 217 192 154 117 107 86 90 113 104 124 173 257 262 296 247 158 124 281 244 217 250 244 244 215 189 195 216 219 221 224 222 223 223 221 224 228 231
333 329 328 328 333 337 332 349 43 89 67 61 79 84 61 41 43 353 341 315 314 316 289 292 289 288 303 323 331 327 326 333 333 327 287 297 340 251 284 43 68 340 313 20 55 14 29 286 260 249 213 153 111 117 105 92 76 73 99 111 181 246 256 285 334 326 119 104 291 296 258 260 250 235 208 189 198 220 222 223 227 226 224 222 221 223 227 229
333 329 330 332 341 344 338 42 103 98 59 69 85 77 60 46 33 6 352 299 306 319 307 308 298 302 323 347 346 308 304 318 319 334 323 196 233 245 246 51 65 350 342 56 125 83 19 262 276 273 184 125 77 79 95 84 74 90 109 122 217 262 229 293 323 350 61 99 160 102 299 288 294 277 237 211 210 226 233 230 233 233 233 229 224 223 225 225
333 330 332 334 348 355 32 105 110 76 73 92 89 77 63 46 25 358 345 306 307 326 343 330 317 323 341 357 347 306 288 257 268 311 324 191 204 201 231 140 77 9 330 109 126 123 232 264 330 24 98 108 89 87 109 112 75 42 137 143 185 216 177 199 263 37 30 19 88 65 4 317 333 329 286 253 222 230 238 228 228 233 237 237 229 225 226 226
333 330 332 336 349 35 111 114 94 86 107 106 91 79 64 29 6 345 344 42 320 318 345 346 336 341 345 351 338 310 302 264 280 298 211 191 203 196 311 129 86 358 303 127 106 97 254 292 357 49 69 91 104 105 136 136 93 349 216 189 187 173 160 153 142 84 40 352 313 58 36 302 322 320 282 302 260 229 228 221 223 227 230 231 230 226 226 226
332 329 331 337 353 98 123 111 92 114 125 108 89 69 41 1 355 349 21 66 10 313 334 360 2 2 347 358 311 311 9 318 315 166 179 184 222 223 31 6 66 64 178 145 109 131 245 2 38 98 93 89 89 103 174 142 100 9 241 184 151 126 136 148 141 101 80 263 289 70 123 266 321 333 290 298 288 253 240 231 229 229 226 224 228 228 226 224
331 325 326 335 354 103 123 105 102 132 141 110 55 359 327 327 339 330 30 52 43 305 323 307 17 17 334 1 324 150 23 309 311 176 214 175 224 248 16 309 20 92 179 124 87 189 231 9 28 45 64 67 64 95 188 138 104 208 224 131 127 134 157 167 139 107 170 203 336 21 109 146 309 285 280 298 301 291 274 246 230 225 227 227 228 228 226 224
330 321 317 325 339 81 117 115 114 127 124 48 301 291 296 310 314 305 77 73 270 302 345 284 334 323 289 312 285 219 234 281 6 270 263 162 243 294 96 197 163 181 5 99 145 257 226 19 2 63 65 67 146 211 190 136 112 237 201 122 135 150 154 154 128 106 6 58 346 323 62 105 282 274 295 335 342 307 284 261 235 218 222 227 229 230 227 226
328 316 305 310 316 227 135 135 131 118 85 346 305 284 291 299 297 58 81 90 286 315 40 315 332 315 302 296 255 246 234 237 132 303 244 144 305 342 95 138 144 132 22 86 156 245 248 277 260 110 77 57 249 259 191 145 102 193 132 87 71 71 77 89 103 104 37 39 275 278 254 151 277 290 322 358 5 299 280 273 256 220 221 224 227 229 226 225
324 311 297 294 285 224 181 177 184 167 348 346 326 291 287 290 44 69 62 210 285 315 291 313 304 297 330 32 350 305 212 189 244 340 50 77 22 39 84 106 113 105 19 33 84 255 292 306 183 92 56 243 218 234 174 178 118 131 109 62 58 46 42 56 56 86 65 357 263 262 228 137 295 288 290 312 247 271 284 302 308 225 217 223 225 227 225 224
317 306 293 286 262 224 209 213 233 258 311 342 341 324 154 57 66 85 112 230 232 320 334 318 290 346 30 70 38 344 16 16 354 33 35 23 24 31 52 74 56 53 18 10 18 333 347 21 352 340 359 351 112 90 58 16 60 106 88 59 84 18 13 36 2 39 75 291 262 270 251 128 120 275 276 280 269 264 252 276 307 320 233 227 225 225 225 225
309 297 288 284 255 224 214 221 250 262 288 327 353 108 124 54 29 108 258 305 278 280 347 288 293 18 29 39 29 336 5 19 12 51 68 31 45 31 25 135 115 34 8 333 351 354 360 360 315 322 12 33 50 61 354 3 35 58 57 62 81 9 6 19 336 8 98 250 261 294 295 131 211 250 274 296 294 286 257 252 287 324 325 263 232 227 225 225
303 290 283 282 255 220 206 213 266 262 271 304 335 107 91 75 35 217 286 339 236 244 248 282 312 11 41 43 12 331 17 32 358 41 78 71 69 40 332 242 131 96 112 200 41 12 340 316 344 357 3 10 55 101 357 342 15 36 81 87 94 90 51 323 292 351 316 281 286 306 323 358 295 271 270 290 298 302 295 289 306 328 342 336 247 230 228 228
300 293 284 277 245 208 194 201 273 263 256 281 133 91 74 88 213 201 265 267 238 320 350 284 346 13 45 50 337 317 50 35 10 42 35 38 51 19 338 345 19 80 105 87 76 72 71 329 344 360 323 343 26 122 136 128 62 37 160 130 124 144 129 209 239 182 280 287 300 322 11 139 283 288 282 293 303 327 352 3 7 7 12 23 26 224 228 233
299 296 287 273 225 201 192 205 276 262 223 216 92 78 102 198 233 187 223 248 227 6 329 20 55 43 19 351 326 2 84 38 21 48 38 45 70 18 339 322 344 48 97 76 42 109 84 251 273 289 288 337 8 259 141 101 61 287 153 86 68 167 136 124 163 176 193 330 334 336 304 212 231 268 298 319 336 16 30 27 30 36 25 25 39 231 235 238
302 299 289 270 217 197 194 223 265 219 211 160 77 68 177 204 199 175 202 219 139 149 88 12 46 56 360 329 337 356 30 41 46 52 30 31 62 7 345 283 324 21 113 113 154 164 72 251 280 327 335 21 30 327 59 75 182 277 51 56 235 160 118 113 138 43 61 70 2 349 309 298 330 279 310 351 11 1 7 7 4 9 6 6 7 323 272 255
309 303 304 297 219 197 203 230 235 195 220 87 94 159 221 204 179 184 202 150 145 106 94 58 24 67 350 335 333 329 357 26 39 55 40 17 7 340 333 306 345 27 163 148 141 175 123 226 299 348 14 350 3 7 37 49 90 110 84 198 209 91 92 110 109 13 35 71 298 354 335 307 2 113 319 357 4 335 336 342 339 337 335 335 327 312 299 287
323 325 355 329 206 191 196 210 202 199 88 74 91 242 219 181 210 207 203 153 157 67 82 102 229 135 170 107 342 316 357 31 10 48 71 38 10 330 338 321 3 20 15 151 114 60 100 318 298 289 205 306 341 35 31 12 40 96 144 155 102 93 359 14 75 63 25 66 299 323 325 278 201 228 312 339 330 307 307 319 326 319 315 315 305 303 300 292
329 347 38 235 195 176 169 181 199 219 42 75 160 243 193 229 266 240 192 142 101 77 87 146 172 90 132 138 152 321 27 65 66 69 87 76 38 341 5 315 323 12 26 88 121 342 62 93 287 282 260 315 357 45 25 329 2 45 73 38 38 123 138 20 81 131 133 129 228 312 347 300 231 223 245 276 278 276 285 300 304 299 304 304 291 294 298 292
324 351 68 171 182 167 158 168 198 117 60 120 193 205 255 242 260 47 151 163 88 82 117 189 143 87 99 145 150 38 49 62 91 85 74 90 98 296 338 349 285 352 37 71 89 358 35 81 265 299 331 14 21 35 118 280 336 24 36 21 3 18 53 90 67 70 109 127 167 353 349 275 256 216 207 252 270 258 249 256 278 295 304 306 297 292 290 288
324 357 95 176 170 170 167 157 143 88 89 169 202 204 288 246 126 39 64 115 99 81 118 148 137 123 135 104 54 74 66 47 51 79 84 80 100 131 332 359 330 303 44 58 49 30 44 82 116 323 360 52 262 266 272 272 174 130 94 69 128 335 73 108 19 336 70 99 158 148 233 268 259 213 216 247 269 280 275 255 272 307 318 317 312 307 302 296
310 5 213 183 176 184 177 139 15 72 113 181 216 222 266 338 104 20 34 75 83 71 86 112 116 106 123 112 58 78 88 51 17 57 95 73 144 174 311 335 334 345 80 72 338 296 132 96 84 14 300 199 266 277 290 185 131 116 87 110 136 67 86 115 181 272 42 67 143 130 84 270 265 256 257 270 286 300 302 284 274 290 303 304 308 310 307 300
287 299 236 188 189 194 171 39 336 353 254 239 270 258 240 117 92 77 29 37 47 60 61 62 95 90 85 130 103 98 99 73 29 48 113 333 226 250 325 343 344 31 73 114 270 329 92 76 65 335 307 313 304 309 352 61 82 71 18 43 88 38 85 136 172 176 124 135 152 86 347 268 279 318 312 297 300 303 299 291 287 280 270 275 286 292 296 297
290 290 231 178 197 206 177 156 190 246 294 314 10 36 108 78 61 64 63 23 25 99 93 43 11 90 71 73 90 99 120 110 60 9 124 130 245 320 358 22 61 56 59 119 178 111 87 57 73 55 7 349 340 343 346 354 32 56 305 320 8 74 85 113 147 77 53 206 156 125 240 257 272 318 317 307 319 318 303 295 290 283 278 280 289 297 303 312
294 273 233 195 209 216 219 200 167 156 275 342 49 32 57 56 47 63 89 72 45 85 110 71 53 90 72 54 65 50 54 105 120 358 52 83 278 335 17 31 51 64 68 85 101 112 115 118 116 108 118 172 232 270 274 304 345 352 309 319 341 56 77 154 139 62 355 226 148 151 217 264 291 312 315 309 330 323 308 302 287 276 278 282 291 304 315 326
354 238 237 214 214 216 240 263 186 130 171 135 96 328 65 85 46 57 75 72 48 62 80 72 67 70 46 48 65 34 13 45 87 95 77 2 294 316 13 33 52 61 65 60 52 76 102 84 111 131 150 176 189 218 228 167 42 334 329 325 330 16 50 90 87 67 202 184 208 217 207 270 301 301 304 306 308 292 294 300 290 277 276 281 292 308 319 324
126 222 205 110 235 240 256 267 229 154 173 154 138 202 124 130 292 25 48 58 65 70 69 46 36 66 83 82 88 55 5 18 41 56 64 295 276 298 6 42 50 40 37 37 31 63 99 55 67 133 156 199 194 211 222 102 164 228 280 309 318 334 20 82 150 232 155 104 299 262 200 203 274 277 286 296 298 281 284 301 300 293 289 283 287 298 292 290
184 227 74 117 226 223 221 256 227 156 139 139 127 124 126 116 87 67 67 68 59 53 71 48 13 26 146 134 112 105 24 27 29 19 257 300 315 335 7 33 39 31 32 31 25 69 110 92 215 147 118 258 233 255 66 123 227 229 210 256 294 312 261 196 219 210 150 151 250 241 183 216 262 278 285 290 292 288 299 316 309 298 292 262 221 93 94 81
198 217 98 142 244 229 241 280 250 164 150 140 71 81 142 133 117 148 117 62 31 7 63 112 333 339 133 125 109 126 160 126 98 276 231 66 21 19 30 25 31 31 34 31 19 56 111 125 229 107 22 327 316 328 24 94 304 307 279 254 264 277 242 210 214 202 176 208 234 171 179 257 257 251 273 303 311 300 304 329 314 274 134 132 120 100 85 76
177 186 216 314 275 265 286 295 221 158 158 42 119 168 148 135 138 165 18 70 122 336 48 124 174 214 136 114 99 124 188 170 153 196 182 125 24 213 140 222 226 16 21 40 26 29 71 69 232 91 50 324 326 346 6 39 35 294 304 302 309 330 321 199 218 152 164 280 303 67 7 286 266 282 305 316 322 306 278 44 85 118 119 119 110 93 80 73
171 180 270 18 314 305 313 288 152 137 150 198 162 173 157 154 161 152 56 44 127 180 141 142 155 136 76 76 95 136 185 168 149 168 173 159 165 188 185 190 174 11 6 43 32 9 66 67 4 73 61 295 313 352 337 2 56 22 328 324 325 346 11 5 331 52 61 322 336 23 359 274 298 340 330 328 338 340 155 116 104 117 121 114 100 86 79 71
184 185 178 112 260 306 309 185 75 128 180 203 172 172 180 187 177 142 92 28 44 122 144 146 143 111 74 80 122 162 173 160 144 165 175 172 171 175 190 214 178 179 173 131 86 345 114 117 133 97 87 269 293 349 342 18 42 2 302 293 310 348 34 31 359 359 357 338 250 311 270 261 309 341 337 333 342 351 51 88 86 93 99 101 97 83 73 56